Location: Владивосток
(43.1151°N, 131.8856°E)
Time: 23:36:55
(UTC+10:00)

Envisat - Pass Details

Date: 25 January 2022
Orbit: 764 x 765 km, 98.2° (Epoch: 17 May)

Event Time Altitude Azimuth Distance (km) Brightness Sun altitude
Rises 06:34:35 0° 8° (N) 3,240 6.3 -21.9°
Reaches altitude 10° 06:36:56 10° 4° (N) 2,310 5.5 -21.5°
Maximum altitude 06:41:53 54° 288° (WNW) 923 3.0 -20.6°
Drops below altitude 10° 06:46:49 10° 212° (SSW) 2,296 5.2 -19.7°
Sets 06:49:08 0° 208° (SSW) 3,218 6.0 -19.2°
